Location: Newark
(47.3150°N, 5.1150°E)
Time: 20:56:30
(UTC+00:00)

AO-7 - Pass Details

Date: 21 December 2019
Orbit: 1440 x 1458 km, 101.8° (Epoch: 28 January)

Event Time Altitude Azimuth Distance (km) Brightness Sun altitude
Rises 06:01:27 0° 15° (NNE) 4,564 ? -13.1°
Reaches altitude 10° 06:05:00 10° 1° (N) 3,586 ? -12.6°
Maximum altitude 06:10:49 22° 316° (NW) 2,784 ? -11.6°
Drops below altitude 10° 06:16:38 10° 272° (W) 3,583 ? -10.7°
Enters shadow 06:16:55 - 270° (W) 3,655 ? -10.7°
